timestamp,wind_dir_avg,wind_spd_avg,wind_spd_max_dir,wind_spd_gust,battery_voltage,lat,long
2024-01-05 00:04:00+00:00,357.0,6.17,352.0,7.3,12.25,47.59359,-54.27349
2024-01-05 00:14:00+00:00,354.0,5.42,345.0,6.47,12.25,47.59359,-54.27349
2024-01-05 00:24:00+00:00,350.0,5.46,358.0,6.47,12.25,47.59359,-54.27349
2024-01-05 00:34:00+00:00,347.0,5.77,352.0,6.78,12.25,47.59359,-54.27349
2024-01-05 00:44:00+00:00,346.0,6.11,347.0,7.57,12.25,47.59359,-54.27349
2024-01-05 00:54:00+00:00,346.0,5.51,346.0,7.23,12.25,47.59359,-54.27349
2024-01-05 01:04:00+00:00,357.0,5.47,2.0,6.47,12.25,47.59359,-54.27349
2024-01-05 01:14:01+00:00,359.0,6.57,1.0,7.21,12.25,47.59359,-54.27349
2024-01-05 01:24:01+00:00,343.0,5.2,340.0,6.11,12.25,47.59359,-54.27349
2024-01-05 01:34:01+00:00,345.0,4.91,345.0,5.5,12.25,47.59359,-54.27349
2024-01-05 01:44:01+00:00,353.0,4.95,349.0,5.66,12.25,47.59359,-54.27349
2024-01-05 01:54:01+00:00,21.0,5.58,15.0,6.25,12.25,47.59359,-54.27349
2024-01-05 02:04:01+00:00,20.0,5.64,11.0,7.0,12.25,47.59359,-54.27349
2024-01-05 02:14:00+00:00,13.0,5.21,15.0,6.43,12.17,47.59359,-54.27349
2024-01-05 02:24:00+00:00,24.0,5.41,22.0,6.91,12.17,47.59359,-54.27349
2024-01-05 02:34:00+00:00,1.0,3.68,2.0,4.63,12.17,47.59359,-54.27349
2024-01-05 02:44:00+00:00,0.0,4.75,358.0,5.48,12.17,47.59359,-54.27349
2024-01-05 02:54:00+00:00,6.0,5.26,5.0,6.46,12.17,47.59359,-54.27349
2024-01-05 03:04:00+00:00,358.0,5.64,359.0,6.81,12.17,47.59359,-54.27349
2024-01-05 03:14:00+00:00,320.0,4.85,322.0,5.58,12.17,47.59359,-54.27349
2024-01-05 03:24:00+00:00,312.0,4.61,314.0,5.15,12.17,47.59359,-54.27349
2024-01-05 03:34:00+00:00,305.0,4.07,308.0,4.74,12.17,47.59359,-54.27349
2024-01-05 03:44:00+00:00,305.0,4.51,315.0,5.43,12.17,47.59359,-54.27349
2024-01-05 03:54:00+00:00,322.0,4.01,324.0,4.94,12.17,47.59359,-54.27349
2024-01-05 04:04:00+00:00,318.0,4.58,329.0,5.51,12.17,47.59359,-54.27349
2024-01-05 04:14:00+00:00,317.0,4.88,316.0,5.61,12.09,47.59359,-54.27349
2024-01-05 04:24:00+00:00,316.0,4.21,320.0,4.94,12.09,47.59359,-54.27349
2024-01-05 04:34:00+00:00,316.0,4.51,320.0,5.31,12.09,47.59359,-54.27349
2024-01-05 04:44:00+00:00,325.0,4.72,311.0,5.69,12.09,47.59359,-54.27349
2024-01-05 04:54:00+00:00,323.0,5.09,336.0,6.04,12.09,47.59359,-54.27349
2024-01-05 05:04:00+00:00,322.0,5.99,322.0,6.81,12.09,47.59359,-54.27349
2024-01-05 05:14:00+00:00,324.0,5.77,329.0,6.54,12.09,47.59359,-54.27349
2024-01-05 05:24:00+00:00,322.0,6.41,324.0,7.43,12.09,47.59359,-54.27349
2024-01-05 05:34:00+00:00,330.0,7.74,326.0,8.63,12.09,47.59359,-54.27349
2024-01-05 05:44:00+00:00,328.0,6.23,330.0,7.21,12.09,47.59359,-54.27349
2024-01-05 05:54:00+00:00,333.0,5.77,337.0,6.91,12.09,47.59359,-54.27349
2024-01-05 06:04:00+00:00,326.0,5.91,324.0,6.75,12.09,47.59359,-54.27349
2024-01-05 06:14:00+00:00,324.0,5.45,324.0,5.98,12.09,47.59359,-54.27349
2024-01-05 06:24:00+00:00,338.0,5.47,341.0,6.57,12.09,47.59359,-54.27349
2024-01-05 06:34:00+00:00,338.0,5.56,343.0,6.93,12.09,47.59359,-54.27349
2024-01-05 06:44:00+00:00,344.0,7.03,345.0,8.12,12.09,47.59359,-54.27349
2024-01-05 06:54:00+00:00,340.0,6.14,340.0,7.07,12.09,47.59359,-54.27349
2024-01-05 07:04:00+00:00,342.0,5.81,347.0,6.73,12.09,47.59359,-54.27349
2024-01-05 07:14:00+00:00,350.0,6.32,346.0,7.09,12.09,47.59359,-54.27349
2024-01-05 07:24:00+00:00,342.0,4.72,332.0,5.52,12.09,47.59359,-54.27349
2024-01-05 07:34:00+00:00,349.0,5.91,347.0,6.89,12.09,47.59359,-54.27349
2024-01-05 07:44:00+00:00,337.0,4.81,334.0,6.01,12.09,47.59359,-54.27349
2024-01-05 07:54:00+00:00,332.0,4.78,331.0,5.5,12.09,47.59359,-54.27349
2024-01-05 08:04:00+00:00,340.0,6.42,334.0,7.39,12.09,47.59359,-54.27349
2024-01-05 08:14:00+00:00,338.0,4.86,337.0,6.0,12.01,47.59359,-54.27349
2024-01-05 08:24:00+00:00,325.0,5.52,328.0,7.12,12.01,47.59359,-54.27349
2024-01-05 08:34:00+00:00,325.0,5.84,327.0,6.59,12.01,47.59359,-54.27349
2024-01-05 08:44:00+00:00,329.0,5.8,329.0,6.37,12.01,47.59359,-54.27349
2024-01-05 08:54:00+00:00,329.0,4.72,325.0,5.25,12.01,47.59359,-54.27349
2024-01-05 09:04:00+00:00,330.0,4.68,330.0,5.67,12.01,47.59359,-54.27349
2024-01-05 09:14:00+00:00,356.0,5.25,354.0,6.16,12.01,47.59359,-54.27349
2024-01-05 09:24:00+00:00,331.0,5.06,326.0,5.59,12.01,47.59359,-54.27349
2024-01-05 09:34:00+00:00,330.0,4.78,331.0,5.63,12.01,47.59359,-54.27349
2024-01-05 09:44:00+00:00,2.0,5.07,2.0,6.47,12.01,47.59359,-54.27349
2024-01-05 09:54:00+00:00,330.0,5.39,328.0,6.0,12.01,47.59359,-54.27349
2024-01-05 10:04:00+00:00,327.0,5.43,327.0,6.12,12.01,47.59359,-54.27349
2024-01-05 10:14:00+00:00,330.0,4.77,326.0,5.42,12.01,47.59359,-54.27349
2024-01-05 10:24:00+00:00,350.0,4.61,0.0,5.58,12.01,47.59359,-54.27349
2024-01-05 10:34:00+00:00,11.0,5.77,18.0,6.74,12.01,47.59359,-54.27349
2024-01-05 10:44:00+00:00,359.0,5.1,354.0,6.21,12.01,47.59359,-54.27349
2024-01-05 10:54:00+00:00,355.0,5.09,0.0,5.93,12.01,47.59359,-54.27349
2024-01-05 11:04:00+00:00,348.0,5.05,343.0,5.73,12.01,47.59359,-54.27349
2024-01-05 11:14:00+00:00,354.0,4.79,357.0,5.66,12.01,47.59359,-54.27349
2024-01-05 11:24:00+00:00,351.0,4.62,352.0,5.2,12.01,47.59359,-54.27349
2024-01-05 11:34:00+00:00,347.0,4.36,342.0,5.3,12.01,47.59359,-54.27349
2024-01-05 11:44:00+00:00,355.0,4.9,350.0,5.39,12.01,47.59359,-54.27349
2024-01-05 11:54:00+00:00,356.0,4.35,358.0,4.94,12.01,47.59359,-54.27349
2024-01-05 12:04:00+00:00,357.0,4.19,352.0,5.01,12.01,47.59359,-54.27349
2024-01-05 12:14:00+00:00,7.0,4.65,8.0,5.47,12.01,47.59359,-54.27349
2024-01-05 12:24:00+00:00,25.0,5.45,31.0,6.05,12.01,47.59359,-54.27349
2024-01-05 12:34:00+00:00,32.0,5.39,31.0,6.06,12.01,47.59359,-54.27349
2024-01-05 12:44:00+00:00,33.0,6.25,36.0,6.8,12.01,47.59359,-54.27349
2024-01-05 12:54:00+00:00,32.0,6.23,26.0,7.7,12.01,47.59359,-54.27349
2024-01-05 13:04:00+00:00,31.0,6.73,31.0,7.68,12.01,47.59359,-54.27349
2024-01-05 13:14:00+00:00,30.0,6.85,28.0,7.73,12.09,47.59359,-54.27349
2024-01-05 13:24:00+00:00,34.0,6.16,32.0,7.23,12.09,47.59359,-54.27349
2024-01-05 13:34:00+00:00,29.0,6.76,35.0,7.64,12.09,47.59359,-54.27349
2024-01-05 13:44:00+00:00,34.0,5.89,38.0,6.86,12.09,47.59359,-54.27349
2024-01-05 13:54:00+00:00,28.0,5.51,31.0,6.13,12.09,47.59359,-54.27349
2024-01-05 14:04:00+00:00,21.0,5.97,30.0,6.81,12.09,47.59359,-54.27349
2024-01-05 14:14:00+00:00,24.0,6.74,21.0,7.47,12.33,47.59359,-54.27349
2024-01-05 14:24:00+00:00,11.0,6.08,19.0,7.08,12.33,47.59359,-54.27349
2024-01-05 14:34:00+00:00,13.0,7.14,12.0,7.77,12.33,47.59359,-54.27349
2024-01-05 14:44:00+00:00,17.0,7.74,17.0,8.99,12.33,47.59359,-54.27349
2024-01-05 14:54:00+00:00,21.0,7.16,16.0,8.18,12.33,47.59359,-54.27349
2024-01-05 15:04:00+00:00,16.0,7.19,17.0,7.97,12.33,47.59359,-54.27349
2024-01-05 15:14:00+00:00,23.0,7.43,21.0,8.55,12.57,47.59359,-54.27349
2024-01-05 15:24:00+00:00,16.0,6.73,13.0,7.67,12.57,47.59359,-54.27349
2024-01-05 15:34:00+00:00,14.0,7.53,16.0,8.55,12.57,47.59359,-54.27349
2024-01-05 15:44:00+00:00,16.0,7.16,19.0,7.89,12.57,47.59359,-54.27349
2024-01-05 15:54:00+00:00,7.0,6.79,3.0,7.77,12.57,47.59359,-54.27349
2024-01-05 16:04:00+00:00,12.0,6.54,16.0,7.57,12.57,47.59359,-54.27349
2024-01-05 16:14:00+00:00,2.0,6.34,353.0,7.71,12.73,47.59359,-54.27349
2024-01-05 16:24:00+00:00,10.0,6.45,3.0,7.33,12.73,47.59359,-54.27349
2024-01-05 16:34:00+00:00,7.0,6.89,11.0,8.09,12.73,47.59359,-54.27349
2024-01-05 16:44:00+00:00,12.0,6.39,13.0,8.06,12.73,47.59359,-54.27349
2024-01-05 16:54:00+00:00,11.0,6.3,16.0,7.71,12.73,47.59359,-54.27349
2024-01-05 17:04:00+00:00,4.0,6.83,2.0,7.92,12.73,47.59359,-54.27349
2024-01-05 17:14:00+00:00,6.0,6.35,17.0,7.24,12.65,47.59359,-54.27349
2024-01-05 17:24:00+00:00,13.0,7.49,12.0,8.82,12.65,47.59359,-54.27349
2024-01-05 17:34:00+00:00,15.0,6.68,19.0,7.55,12.65,47.59359,-54.27349
2024-01-05 17:44:00+00:00,9.0,7.36,18.0,8.56,12.65,47.59359,-54.27349
2024-01-05 17:54:00+00:00,15.0,6.86,19.0,7.87,12.65,47.59359,-54.27349
2024-01-05 18:04:00+00:00,8.0,7.47,16.0,8.83,12.65,47.59359,-54.27349
2024-01-05 18:14:00+00:00,6.0,6.52,1.0,7.89,12.49,47.59359,-54.27349
2024-01-05 18:24:00+00:00,6.0,7.93,8.0,9.99,12.49,47.59359,-54.27349
2024-01-05 18:34:00+00:00,2.0,6.51,5.0,7.36,12.49,47.59359,-54.27349
2024-01-05 18:44:00+00:00,6.0,7.4,2.0,8.64,12.49,47.59359,-54.27349
2024-01-05 18:54:00+00:00,18.0,9.54,22.0,11.02,12.49,47.59359,-54.27349
2024-01-05 19:04:00+00:00,18.0,9.1,18.0,10.16,12.49,47.59359,-54.27349
2024-01-05 19:14:00+00:00,15.0,8.6,16.0,9.81,12.17,47.59359,-54.27349
2024-01-05 19:24:00+00:00,17.0,8.17,19.0,9.34,12.17,47.59359,-54.27349
2024-01-05 19:34:00+00:00,14.0,8.55,13.0,9.83,12.17,47.59359,-54.27349
2024-01-05 19:44:00+00:00,3.0,8.11,4.0,9.26,12.17,47.59359,-54.27349
2024-01-05 19:54:00+00:00,5.0,7.99,6.0,9.31,12.17,47.59359,-54.27349
2024-01-05 20:04:00+00:00,20.0,8.55,22.0,9.94,12.17,47.59359,-54.27349
2024-01-05 20:14:00+00:00,9.0,6.12,13.0,7.08,12.01,47.59359,-54.27349
2024-01-05 20:24:00+00:00,6.0,7.16,4.0,7.98,12.01,47.59359,-54.27349
2024-01-05 20:34:00+00:00,357.0,7.79,357.0,9.4,12.01,47.59359,-54.27349
2024-01-05 20:44:00+00:00,359.0,6.78,353.0,8.81,12.01,47.59359,-54.27349
2024-01-05 20:54:00+00:00,1.0,9.44,0.0,10.48,12.01,47.59359,-54.27349
2024-01-05 21:04:00+00:00,358.0,10.89,1.0,12.94,12.01,47.59359,-54.27349
2024-01-05 21:14:00+00:00,5.0,10.97,11.0,12.47,12.01,47.59359,-54.27349
2024-01-05 21:24:00+00:00,5.0,11.65,3.0,12.86,12.01,47.59359,-54.27349
2024-01-05 21:34:00+00:00,355.0,13.4,12.0,15.43,12.01,47.59359,-54.27349
2024-01-05 21:44:00+00:00,347.0,11.8,338.0,14.97,12.01,47.59359,-54.27349
2024-01-05 21:54:00+00:00,359.0,12.86,3.0,15.35,12.01,47.59359,-54.27349
2024-01-05 22:04:00+00:00,349.0,12.61,336.0,14.81,12.01,47.59359,-54.27349
2024-01-05 22:14:00+00:00,345.0,11.87,334.0,13.74,11.93,47.59359,-54.27349
2024-01-05 22:24:00+00:00,3.0,11.9,9.0,13.91,11.93,47.59359,-54.27349
2024-01-05 22:34:00+00:00,343.0,10.82,337.0,13.03,11.93,47.59359,-54.27349
2024-01-05 22:44:00+00:00,339.0,9.34,325.0,10.87,11.93,47.59359,-54.27349
2024-01-05 22:54:00+00:00,342.0,12.63,339.0,15.02,11.93,47.59359,-54.27349
2024-01-05 23:04:00+00:00,336.0,12.58,334.0,14.49,11.93,47.59359,-54.27349
2024-01-05 23:14:00+00:00,342.0,12.08,336.0,14.68,11.93,47.59359,-54.27349
2024-01-05 23:24:00+00:00,340.0,10.93,330.0,13.28,11.93,47.59359,-54.27349
2024-01-05 23:34:00+00:00,348.0,12.31,342.0,15.13,11.93,47.59359,-54.27349
2024-01-05 23:44:00+00:00,349.0,12.79,340.0,14.87,11.93,47.59359,-54.27349
2024-01-05 23:54:00+00:00,345.0,13.03,336.0,14.94,11.93,47.59359,-54.27349
